Location: Unspecified
(0.0000°N, 1.0000°E)
Time: 09:28:45
(UTC+02:00)

Daily predictions for brighter satellites

Satellite Brightness Start Highest point End
(mag) Time Altitude Azimuth Time Altitude Azimuth Time Altitude Azimuth
SPOT 3 Rocket 4.1 20:03:54 10° SE 20:08:33 34° ENE 20:13:09 10° NNE
Ariane H10-3 2.9 20:08:17 10° W 20:10:49 72° S 20:17:38 10° E
Cosmos 1606 Rocket 3.8 20:06:56 10° S 20:11:14 49° E 20:15:27 10° NNE
COSMOS 2455 3.2 20:05:30 10° NNW 20:11:29 75° WSW 20:17:29 10° SSE
XTE 3.6 20:09:43 10° SW 20:12:24 36° SSE 20:15:04 10° E
Cosmos 1238 Rocket 4.0 20:09:52 10° NNW 20:12:45 36° W 20:15:29 10° SSW
Cosmos 2228 4.1 20:10:22 10° SSE 20:13:57 24° E 20:17:30 10° NE
Cosmos 1602 Rocket 3.7 20:12:36 10° N 20:16:55 54° E 20:21:16 10° SSE
Thor Agena Rocket 3.8 20:14:42 10° N 20:19:52 75° WNW 20:24:59 10° SSW
Meteor 1-21 4.3 20:20:15 10° N 20:26:04 80° E 20:31:54 10° S
Nadezhda 1 Rocket 4.0 20:20:54 10° N 20:27:08 66° E 20:33:17 10° SSE
Cosmos 1626 Rocket 3.6 20:22:56 10° N 20:27:22 87° E 20:31:51 10° S
Stardust Del rocket 3.3 20:25:25 10° NW 20:27:57 45° NNE 20:31:16 14° E
COSMOS 2406 3.5 20:23:57 10° S 20:29:19 44° ESE 20:34:40 10° NE
MONITOR-E 4.1 20:27:42 10° S 20:30:47 86° WSW 20:33:52 10° NNW
Ariane 44P Rocket 2.4 20:23:34 10° W 20:31:43 87° S 20:33:39 17° E
ATLAS 2AS CENTAUR RB 4.0 15:08:20 10° W 20:32:20 90° SSE 20:37:57 15° ENE
ATLAS 2A CENTAUR R/B 3.4 20:31:38 10° S 20:33:58 16° SE 20:36:03 14° ESE
GEOS 3 Rocket 4.0 20:29:04 10° NNE 20:34:22 69° WNW 20:39:37 10° SW
Cosmos 1709 Rocket 4.4 20:28:38 10° S 20:34:51 72° W 20:41:08 10° N
USA 234 3.8 20:29:46 10° ESE 20:35:40 37° NE 20:41:33 10° NNW
SL-08 ROCKET BODY 4.3 20:34:03 10° S 20:39:50 65° E 20:45:36 10° NNE
ISS -3.9 20:40:19 10° SW 20:43:35 89° E 20:46:17 14° NE
Cosmos 304 Rocket 3.8 20:41:38 10° SSW 20:46:24 80° W 20:51:10 10° N
H-10 deb 4.0 20:43:16 10° WSW 20:47:34 55° S 21:01:02 19° ESE
H-10 deb 4.0 20:43:15 10° WSW 20:47:34 55° S 21:01:03 19° ESE
H-10 deb 4.0 20:43:15 10° WSW 20:47:34 55° S 21:01:02 19° ESE
Cosmos 1766 4.0 20:45:07 10° SSE 20:48:38 30° E 20:51:39 13° NE
FENGYUN 3A 3.7 20:43:54 10° SSE 20:49:08 55° ENE 20:54:20 10° N
Cosmos 1842 4.3 20:48:31 10° NNW 20:52:18 48° W 20:56:06 10° S
Cosmos 1825 Rocket 3.8 20:49:47 10° NNE 20:54:00 44° E 20:58:15 10° SSE
Ariane H10-3 2.5 20:47:14 10° W 20:55:49 78° S 20:56:54 38° E
Cosmos 2184 Rocket 3.9 20:52:11 10° S 20:58:18 62° E 21:04:28 10° NNE
USA 81 4.5 20:54:12 10° NNE 20:59:01 37° E 21:03:51 10° SSE
ALOS 2.2 20:57:52 10° S 21:02:33 88° W 21:07:12 10° NNW
Cosmos 2369 Rocket 2.5 21:03:02 10° N 21:08:11 39° ENE 21:08:47 38° E
Cosmos 1184 Rocket 3.3 21:06:21 10° NNW 21:09:40 60° W 21:13:01 10° S
Cosmos 2327 Rocket 4.5 21:17:42 10° S 21:23:59 81° W 21:30:09 10° N
Cosmos 1758 Rocket 3.4 21:20:27 10° N 21:24:55 86° E 21:25:41 62° S
OAO 3 Rocket 3.4 21:20:22 10° WSW 21:25:13 67° NW 21:26:03 55° NNE
VEP-3 3.6 20:55:23 10° WNW 21:26:30 69° NNE 21:29:32 42° E
USA 215 3.2 21:23:16 22° NE 21:27:49 86° NW 21:34:24 10° SW
Ariane H10 3.8 21:30:23 10° WSW 21:31:41 24° SW 21:31:41 24° SW
Ariane 42L R/B 4.1 21:30:28 10° WNW 21:34:10 46° N 21:35:48 40° NE
Hubble Space Telescope 2.7 21:33:37 10° W 21:36:54 22° SSW 21:37:01 22° SSW
GPS 2-15 Rocket1 3.7 21:36:03 10° W 21:40:12 55° SW 21:40:12 55° SW
GPS 2-17 Rocket1 4.4 21:42:51 10° WNW 21:45:25 34° NW 21:45:25 34° NW
Meteor 2-19 Rocket 4.4 21:41:10 10° S 21:47:15 78° W 21:53:17 10° N
ARIANE 5 DEB (SYLDA) 4.4 21:13:24 10° W 21:54:36 63° S 21:56:05 55° SE
H-2A ROCKET BODY 4.5 21:58:06 10° WSW 22:02:21 25° S 22:04:34 23° SSE
Cosmos 2154 Rocket 4.3 21:56:44 10° SSW 22:02:51 64° W 22:08:57 10° N
Centaur D AC-28 4.2 22:10:17 10° WNW 22:11:21 15° NW 22:11:21 15° NW
Cosmos 1943 Rocket 4.5 22:12:15 10° NNW 22:13:04 15° NNW 22:13:04 15° NNW
